Time,TemperatureF,DewpointF,PressureIn,WindDirection,WindDirectionDegrees,WindSpeedMPH,WindSpeedGustMPH,Humidity,HourlyPrecipIn,Conditions,Clouds,dailyrainin,SolarRadiationWatts/m^2,SoftwareType,DateUTC
2013-05-14 00:02:00,68.8,59.0,29.91,SSE,166,0.0,1.0,71,0.00,,,0.00,0,HR-IXP-WINDi_r2_v1.2,2013-05-14 07:02:00,
2013-05-14 00:08:00,68.6,58.8,29.91,SSE,166,1.0,2.0,71,0.00,,,0.00,0,HR-IXP-WINDi_r2_v1.2,2013-05-14 07:08:00,
2013-05-14 00:13:00,68.9,57.8,29.91,SW,214,2.0,3.0,68,0.00,,,0.00,0,HR-IXP-WINDi_r2_v1.2,2013-05-14 07:13:00,
2013-05-14 00:18:00,68.8,56.9,29.91,SW,217,0.0,3.0,66,0.00,,,0.00,0,HR-IXP-WINDi_r2_v1.2,2013-05-14 07:18:00,
2013-05-14 00:23:00,68.5,56.6,29.91,SW,217,1.0,3.0,66,0.00,,,0.00,0,HR-IXP-WINDi_r2_v1.2,2013-05-14 07:23:00,
2013-05-14 00:29:00,68.2,56.4,29.91,SW,217,0.0,1.0,66,0.00,,,0.00,0,HR-IXP-WINDi_r2_v1.2,2013-05-14 07:29:00,
2013-05-14 00:34:00,67.9,56.5,29.91,SW,217,0.0,2.0,67,0.00,,,0.00,0,HR-IXP-WINDi_r2_v1.2,2013-05-14 07:34:00,
2013-05-14 00:39:00,67.4,56.8,29.91,SW,217,0.0,2.0,69,0.00,,,0.00,0,HR-IXP-WINDi_r2_v1.2,2013-05-14 07:39:00,
2013-05-14 00:44:00,67.3,57.1,29.91,SW,217,0.0,0.0,70,0.00,,,0.00,0,HR-IXP-WINDi_r2_v1.2,2013-05-14 07:44:00,
2013-05-14 00:49:00,67.2,57.0,29.91,SW,217,0.0,0.0,70,0.00,,,0.00,0,HR-IXP-WINDi_r2_v1.2,2013-05-14 07:49:00,
2013-05-14 00:55:00,67.2,57.0,29.91,SW,217,0.0,0.0,70,0.00,,,0.00,0,HR-IXP-WINDi_r2_v1.2,2013-05-14 07:55:00,
2013-05-14 01:00:00,67.0,57.2,29.91,SW,217,0.0,0.0,71,0.00,,,0.00,0,HR-IXP-WINDi_r2_v1.2,2013-05-14 08:00:00,
2013-05-14 01:05:00,67.0,56.8,29.91,SW,217,0.0,0.0,70,0.00,,,0.00,0,HR-IXP-WINDi_r2_v1.2,2013-05-14 08:05:00,
2013-05-14 01:10:00,67.0,58.0,29.91,SW,217,0.0,0.0,73,0.00,,,0.00,0,HR-IXP-WINDi_r2_v1.2,2013-05-14 08:10:00,
2013-05-14 01:15:00,66.9,57.9,29.91,South,178,1.0,2.0,73,0.00,,,0.00,0,HR-IXP-WINDi_r2_v1.2,2013-05-14 08:15:00,
2013-05-14 01:20:00,66.3,58.1,29.91,South,169,0.0,2.0,75,0.00,,,0.00,0,HR-IXP-WINDi_r2_v1.2,2013-05-14 08:20:00,
2013-05-14 01:25:00,66.2,58.0,29.91,South,169,0.0,2.0,75,0.00,,,0.00,0,HR-IXP-WINDi_r2_v1.2,2013-05-14 08:25:00,
2013-05-14 01:30:00,66.1,58.3,29.91,South,169,0.0,1.0,76,0.00,,,0.00,0,HR-IXP-WINDi_r2_v1.2,2013-05-14 08:30:00,
2013-05-14 01:35:00,66.1,58.3,29.91,South,169,0.0,1.0,76,0.00,,,0.00,0,HR-IXP-WINDi_r2_v1.2,2013-05-14 08:35:00,
2013-05-14 01:41:00,66.1,58.3,29.91,South,169,2.0,2.0,76,0.00,,,0.00,0,HR-IXP-WINDi_r2_v1.2,2013-05-14 08:41:00,
2013-05-14 01:46:00,66.1,58.3,29.91,South,169,0.0,2.0,76,0.00,,,0.00,0,HR-IXP-WINDi_r2_v1.2,2013-05-14 08:46:00,
2013-05-14 01:51:00,65.9,58.1,29.91,South,169,0.0,2.0,76,0.00,,,0.00,0,HR-IXP-WINDi_r2_v1.2,2013-05-14 08:51:00,
2013-05-14 01:56:00,65.7,58.2,29.91,South,169,0.0,0.0,77,0.00,,,0.00,0,HR-IXP-WINDi_r2_v1.2,2013-05-14 08:56:00,
2013-05-14 02:01:00,65.4,57.9,29.91,South,169,0.0,1.0,77,0.00,,,0.00,0,HR-IXP-WINDi_r2_v1.2,2013-05-14 09:01:00,
2013-05-14 02:06:00,65.2,57.7,29.91,South,169,1.0,1.0,77,0.00,,,0.00,0,HR-IXP-WINDi_r2_v1.2,2013-05-14 09:06:00,
2013-05-14 02:11:00,64.8,57.7,29.90,South,169,0.0,2.0,78,0.00,,,0.00,0,HR-IXP-WINDi_r2_v1.2,2013-05-14 09:11:00,
2013-05-14 02:17:00,64.5,57.4,29.90,South,169,0.0,2.0,78,0.00,,,0.00,0,HR-IXP-WINDi_r2_v1.2,2013-05-14 09:17:00,
2013-05-14 02:22:00,64.2,57.5,29.90,South,169,0.0,1.0,79,0.00,,,0.00,0,HR-IXP-WINDi_r2_v1.2,2013-05-14 09:22:00,
2013-05-14 02:27:00,64.3,57.6,29.90,South,169,0.0,2.0,79,0.00,,,0.00,0,HR-IXP-WINDi_r2_v1.2,2013-05-14 09:27:00,
2013-05-14 02:32:00,64.5,57.8,29.90,South,169,1.0,2.0,79,0.00,,,0.00,0,HR-IXP-WINDi_r2_v1.2,2013-05-14 09:32:00,
2013-05-14 02:37:00,64.6,57.9,29.91,South,169,0.0,1.0,79,0.00,,,0.00,0,HR-IXP-WINDi_r2_v1.2,2013-05-14 09:37:00,
2013-05-14 02:42:00,64.4,57.7,29.90,South,169,0.0,2.0,79,0.00,,,0.00,0,HR-IXP-WINDi_r2_v1.2,2013-05-14 09:42:00,
2013-05-14 02:47:00,64.1,57.4,29.90,South,169,0.0,2.0,79,0.00,,,0.00,0,HR-IXP-WINDi_r2_v1.2,2013-05-14 09:47:00,
2013-05-14 02:53:00,64.1,57.7,29.91,South,169,1.0,3.0,80,0.00,,,0.00,0,HR-IXP-WINDi_r2_v1.2,2013-05-14 09:53:00,
2013-05-14 02:58:00,64.3,57.9,29.90,South,169,0.0,3.0,80,0.00,,,0.00,0,HR-IXP-WINDi_r2_v1.2,2013-05-14 09:58:00,
2013-05-14 03:03:00,64.4,57.7,29.90,South,169,0.0,2.0,79,0.00,,,0.00,0,HR-IXP-WINDi_r2_v1.2,2013-05-14 10:03:00,
2013-05-14 03:08:00,64.3,57.6,29.91,South,169,0.0,1.0,79,0.00,,,0.00,0,HR-IXP-WINDi_r2_v1.2,2013-05-14 10:08:00,
2013-05-14 03:14:00,64.1,57.7,29.91,South,169,0.0,0.0,80,0.00,,,0.00,0,HR-IXP-WINDi_r2_v1.2,2013-05-14 10:14:00,
2013-05-14 03:19:00,63.9,57.5,29.91,South,169,0.0,1.0,80,0.00,,,0.00,0,HR-IXP-WINDi_r2_v1.2,2013-05-14 10:19:00,
2013-05-14 03:24:00,63.8,57.4,29.91,South,169,0.0,1.0,80,0.00,,,0.00,0,HR-IXP-WINDi_r2_v1.2,2013-05-14 10:24:00,
2013-05-14 03:29:00,63.3,57.3,29.91,South,169,0.0,0.0,81,0.00,,,0.00,0,HR-IXP-WINDi_r2_v1.2,2013-05-14 10:29:00,
2013-05-14 03:34:00,63.2,57.2,29.91,South,169,0.0,0.0,81,0.00,,,0.00,0,HR-IXP-WINDi_r2_v1.2,2013-05-14 10:34:00,
2013-05-14 03:39:00,63.3,57.6,29.91,South,169,0.0,0.0,82,0.00,,,0.00,0,HR-IXP-WINDi_r2_v1.2,2013-05-14 10:39:00,
2013-05-14 03:44:00,63.4,57.7,29.91,South,169,0.0,0.0,82,0.00,,,0.00,0,HR-IXP-WINDi_r2_v1.2,2013-05-14 10:44:00,
2013-05-14 03:50:00,63.2,57.5,29.91,South,169,0.0,0.0,82,0.00,,,0.00,0,HR-IXP-WINDi_r2_v1.2,2013-05-14 10:50:00,
2013-05-14 03:55:00,63.2,57.5,29.91,South,169,0.0,0.0,82,0.00,,,0.00,0,HR-IXP-WINDi_r2_v1.2,2013-05-14 10:55:00,
2013-05-14 04:00:00,62.8,56.8,29.91,South,169,0.0,1.0,81,0.00,,,0.00,0,HR-IXP-WINDi_r2_v1.2,2013-05-14 11:00:00,
2013-05-14 04:05:00,62.6,57.3,29.91,South,169,0.0,1.0,83,0.00,,,0.00,0,HR-IXP-WINDi_r2_v1.2,2013-05-14 11:05:00,
2013-05-14 04:10:00,62.5,56.9,29.92,South,169,0.0,1.0,82,0.00,,,0.00,0,HR-IXP-WINDi_r2_v1.2,2013-05-14 11:10:00,
2013-05-14 04:15:00,62.3,57.0,29.92,South,169,0.0,1.0,83,0.00,,,0.00,0,HR-IXP-WINDi_r2_v1.2,2013-05-14 11:15:00,
2013-05-14 04:20:00,62.2,57.2,29.92,South,169,0.0,1.0,84,0.00,,,0.00,0,HR-IXP-WINDi_r2_v1.2,2013-05-14 11:20:00,
2013-05-14 04:26:00,62.3,57.3,29.92,South,169,0.0,1.0,84,0.00,,,0.00,0,HR-IXP-WINDi_r2_v1.2,2013-05-14 11:26:00,
2013-05-14 04:31:00,62.2,57.2,29.92,South,169,1.0,1.0,84,0.00,,,0.00,0,HR-IXP-WINDi_r2_v1.2,2013-05-14 11:31:00,
2013-05-14 04:36:00,62.0,57.0,29.92,South,169,0.0,1.0,84,0.00,,,0.00,0,HR-IXP-WINDi_r2_v1.2,2013-05-14 11:36:00,
2013-05-14 04:41:00,61.7,56.8,29.92,South,169,0.0,1.0,84,0.00,,,0.00,0,HR-IXP-WINDi_r2_v1.2,2013-05-14 11:41:00,
2013-05-14 04:46:00,61.6,57.0,29.92,South,169,0.0,2.0,85,0.00,,,0.00,0,HR-IXP-WINDi_r2_v1.2,2013-05-14 11:46:00,
2013-05-14 04:51:00,61.8,57.2,29.92,South,169,1.0,2.0,85,0.00,,,0.00,0,HR-IXP-WINDi_r2_v1.2,2013-05-14 11:51:00,
2013-05-14 04:56:00,61.8,57.2,29.92,South,169,0.0,1.0,85,0.00,,,0.00,0,HR-IXP-WINDi_r2_v1.2,2013-05-14 11:56:00,
2013-05-14 05:01:00,61.9,57.3,29.93,South,169,0.0,1.0,85,0.00,,,0.00,0,HR-IXP-WINDi_r2_v1.2,2013-05-14 12:01:00,
2013-05-14 05:07:00,61.6,57.0,29.93,South,169,0.0,1.0,85,0.00,,,0.00,0,HR-IXP-WINDi_r2_v1.2,2013-05-14 12:07:00,
2013-05-14 05:12:00,61.3,56.7,29.93,South,169,0.0,1.0,85,0.00,,,0.00,0,HR-IXP-WINDi_r2_v1.2,2013-05-14 12:12:00,
2013-05-14 05:17:00,61.4,57.1,29.93,South,169,0.0,1.0,86,0.00,,,0.00,0,HR-IXP-WINDi_r2_v1.2,2013-05-14 12:17:00,
2013-05-14 05:22:00,61.4,57.1,29.93,South,169,0.0,1.0,86,0.00,,,0.00,0,HR-IXP-WINDi_r2_v1.2,2013-05-14 12:22:00,
2013-05-14 05:27:00,61.4,57.1,29.93,South,169,0.0,1.0,86,0.00,,,0.00,0,HR-IXP-WINDi_r2_v1.2,2013-05-14 12:27:00,
2013-05-14 05:32:00,61.4,57.1,29.93,South,169,1.0,2.0,86,0.00,,,0.00,0,HR-IXP-WINDi_r2_v1.2,2013-05-14 12:32:00,
2013-05-14 05:38:00,61.3,57.0,29.93,South,169,1.0,2.0,86,0.00,,,0.00,0,HR-IXP-WINDi_r2_v1.2,2013-05-14 12:38:00,
2013-05-14 05:43:00,61.4,57.1,29.93,South,169,1.0,2.0,86,0.00,,,0.00,0,HR-IXP-WINDi_r2_v1.2,2013-05-14 12:43:00,
2013-05-14 05:48:00,61.4,57.1,29.93,SSE,150,1.0,3.0,86,0.00,,,0.00,0,HR-IXP-WINDi_r2_v1.2,2013-05-14 12:48:00,
2013-05-14 05:53:00,61.4,57.1,29.93,SSE,150,0.0,3.0,86,0.00,,,0.00,0,HR-IXP-WINDi_r2_v1.2,2013-05-14 12:53:00,
2013-05-14 05:58:00,61.2,56.6,29.93,SSE,150,0.0,2.0,85,0.00,,,0.00,7,HR-IXP-WINDi_r2_v1.2,2013-05-14 12:58:00,
2013-05-14 06:03:00,61.1,56.5,29.94,SSE,150,0.0,1.0,85,0.00,,,0.00,9,HR-IXP-WINDi_r2_v1.2,2013-05-14 13:03:00,
2013-05-14 06:09:00,61.2,56.3,29.94,SSE,150,0.0,0.0,84,0.00,,,0.00,12,HR-IXP-WINDi_r2_v1.2,2013-05-14 13:09:00,
2013-05-14 06:14:00,61.3,56.0,29.94,SSE,150,0.0,0.0,83,0.00,,,0.00,19,HR-IXP-WINDi_r2_v1.2,2013-05-14 13:14:00,
2013-05-14 06:19:00,61.4,56.1,29.94,SSE,150,0.0,0.0,83,0.00,,,0.00,26,HR-IXP-WINDi_r2_v1.2,2013-05-14 13:19:00,
2013-05-14 06:24:00,62.1,56.5,29.94,SSE,150,0.0,0.0,82,0.00,,,0.00,37,HR-IXP-WINDi_r2_v1.2,2013-05-14 13:24:00,
2013-05-14 06:29:00,62.2,56.2,29.95,SSE,150,0.0,0.0,81,0.00,,,0.00,49,HR-IXP-WINDi_r2_v1.2,2013-05-14 13:29:00,
2013-05-14 06:35:00,62.8,56.8,29.95,SSE,150,0.0,1.0,81,0.00,,,0.00,62,HR-IXP-WINDi_r2_v1.2,2013-05-14 13:35:00,
2013-05-14 06:40:00,62.9,57.3,29.95,SSE,150,0.0,1.0,82,0.00,,,0.00,76,HR-IXP-WINDi_r2_v1.2,2013-05-14 13:40:00,
2013-05-14 06:45:00,62.9,56.6,29.96,SSE,155,0.0,3.0,80,0.00,,,0.00,90,HR-IXP-WINDi_r2_v1.2,2013-05-14 13:45:00,
2013-05-14 06:50:00,63.1,56.4,29.96,SSE,156,1.0,3.0,79,0.00,,,0.00,105,HR-IXP-WINDi_r2_v1.2,2013-05-14 13:50:00,
2013-05-14 06:55:00,63.3,56.6,29.96,SSE,156,0.0,3.0,79,0.00,,,0.00,123,HR-IXP-WINDi_r2_v1.2,2013-05-14 13:55:00,
2013-05-14 07:00:00,63.5,56.8,29.96,SSE,156,0.0,3.0,79,0.00,,,0.00,132,HR-IXP-WINDi_r2_v1.2,2013-05-14 14:00:00,
2013-05-14 07:05:00,63.6,56.9,29.96,SSE,156,0.0,1.0,79,0.00,,,0.00,155,HR-IXP-WINDi_r2_v1.2,2013-05-14 14:05:00,
2013-05-14 07:11:00,63.8,57.4,29.96,SSE,156,1.0,2.0,80,0.00,,,0.00,156,HR-IXP-WINDi_r2_v1.2,2013-05-14 14:11:00,
2013-05-14 07:16:00,63.8,57.1,29.96,SSE,156,0.0,2.0,79,0.00,,,0.00,169,HR-IXP-WINDi_r2_v1.2,2013-05-14 14:16:00,
2013-05-14 07:21:00,64.3,57.6,29.97,SSE,156,1.0,1.0,79,0.00,,,0.00,183,HR-IXP-WINDi_r2_v1.2,2013-05-14 14:21:00,
2013-05-14 07:26:00,64.3,57.2,29.97,SSE,156,0.0,1.0,78,0.00,,,0.00,185,HR-IXP-WINDi_r2_v1.2,2013-05-14 14:26:00,
2013-05-14 07:31:00,64.6,57.9,29.97,South,186,1.0,4.0,79,0.00,,,0.00,199,HR-IXP-WINDi_r2_v1.2,2013-05-14 14:31:00,
2013-05-14 07:37:00,64.4,58.0,29.97,SSW,210,2.0,4.0,80,0.00,,,0.00,223,HR-IXP-WINDi_r2_v1.2,2013-05-14 14:37:00,
2013-05-14 07:42:00,64.6,58.6,29.98,SSW,211,0.0,4.0,81,0.00,,,0.00,225,HR-IXP-WINDi_r2_v1.2,2013-05-14 14:42:00,
2013-05-14 07:47:00,64.7,59.0,29.98,SSW,193,1.0,3.0,82,0.00,,,0.00,281,HR-IXP-WINDi_r2_v1.2,2013-05-14 14:47:00,
2013-05-14 07:52:00,65.0,59.3,29.98,SSW,196,3.0,3.0,82,0.00,,,0.00,269,HR-IXP-WINDi_r2_v1.2,2013-05-14 14:52:00,
2013-05-14 07:57:00,65.2,59.5,29.98,South,183,1.0,4.0,82,0.00,,,0.00,274,HR-IXP-WINDi_r2_v1.2,2013-05-14 14:57:00,
2013-05-14 08:03:00,64.7,59.0,29.98,SSW,213,2.0,5.0,82,0.00,,,0.00,311,HR-IXP-WINDi_r2_v1.2,2013-05-14 15:03:00,
2013-05-14 08:08:00,64.8,59.5,29.98,SSE,159,2.0,5.0,83,0.00,,,0.00,352,HR-IXP-WINDi_r2_v1.2,2013-05-14 15:08:00,
2013-05-14 08:13:00,65.2,59.5,29.98,SW,223,2.0,4.0,82,0.00,,,0.00,348,HR-IXP-WINDi_r2_v1.2,2013-05-14 15:13:00,
2013-05-14 08:18:00,64.9,59.2,29.98,SSW,203,2.0,4.0,82,0.00,,,0.00,288,HR-IXP-WINDi_r2_v1.2,2013-05-14 15:18:00,
2013-05-14 08:23:00,65.2,59.5,29.98,SSW,198,1.0,5.0,82,0.00,,,0.00,330,HR-IXP-WINDi_r2_v1.2,2013-05-14 15:23:00,
2013-05-14 08:28:00,65.8,60.1,29.98,SSW,205,3.0,5.0,82,0.00,,,0.00,457,HR-IXP-WINDi_r2_v1.2,2013-05-14 15:28:00,
2013-05-14 08:34:00,66.4,59.6,29.98,SSE,167,1.0,5.0,79,0.00,,,0.00,376,HR-IXP-WINDi_r2_v1.2,2013-05-14 15:34:00,
2013-05-14 08:39:00,66.5,59.4,29.98,South,179,1.0,5.0,78,0.00,,,0.00,373,HR-IXP-WINDi_r2_v1.2,2013-05-14 15:39:00,
2013-05-14 08:44:00,66.9,59.4,29.98,South,177,0.0,4.0,77,0.00,,,0.00,408,HR-IXP-WINDi_r2_v1.2,2013-05-14 15:44:00,
2013-05-14 08:49:00,67.7,59.8,29.98,SSE,161,1.0,4.0,76,0.00,,,0.00,446,HR-IXP-WINDi_r2_v1.2,2013-05-14 15:49:00,
2013-05-14 08:54:00,68.7,60.4,29.98,SSE,160,0.0,4.0,75,0.00,,,0.00,468,HR-IXP-WINDi_r2_v1.2,2013-05-14 15:54:00,
2013-05-14 09:00:00,70.0,60.9,29.97,SSE,158,1.0,3.0,73,0.00,,,0.00,471,HR-IXP-WINDi_r2_v1.2,2013-05-14 16:00:00,
2013-05-14 09:05:00,69.5,60.0,29.98,SE,129,2.0,5.0,72,0.00,,,0.00,494,HR-IXP-WINDi_r2_v1.2,2013-05-14 16:05:00,
2013-05-14 09:10:00,69.5,59.6,29.97,South,178,1.0,5.0,71,0.00,,,0.00,559,HR-IXP-WINDi_r2_v1.2,2013-05-14 16:10:00,
2013-05-14 09:15:00,69.8,60.3,29.98,SSE,156,1.0,5.0,72,0.00,,,0.00,570,HR-IXP-WINDi_r2_v1.2,2013-05-14 16:15:00,
2013-05-14 09:21:00,68.5,59.8,29.98,South,190,1.0,5.0,74,0.00,,,0.00,613,HR-IXP-WINDi_r2_v1.2,2013-05-14 16:21:00,
2013-05-14 09:26:00,68.0,59.7,29.98,WSW,252,2.0,5.0,75,0.00,,,0.00,626,HR-IXP-WINDi_r2_v1.2,2013-05-14 16:26:00,
2013-05-14 09:31:00,68.5,59.8,29.98,SW,218,1.0,6.0,74,0.00,,,0.00,554,HR-IXP-WINDi_r2_v1.2,2013-05-14 16:31:00,
2013-05-14 09:36:00,70.1,60.6,29.98,SSE,165,2.0,6.0,72,0.00,,,0.00,656,HR-IXP-WINDi_r2_v1.2,2013-05-14 16:36:00,
2013-05-14 09:41:00,71.0,60.7,29.98,SW,221,2.0,6.0,70,0.00,,,0.00,666,HR-IXP-WINDi_r2_v1.2,2013-05-14 16:41:00,
2013-05-14 09:47:00,70.1,59.8,29.98,SSW,213,4.0,7.0,70,0.00,,,0.00,687,HR-IXP-WINDi_r2_v1.2,2013-05-14 16:47:00,
2013-05-14 09:52:00,70.1,60.2,29.98,SW,221,1.0,7.0,71,0.00,,,0.00,550,HR-IXP-WINDi_r2_v1.2,2013-05-14 16:52:00,
2013-05-14 09:57:00,71.0,61.1,29.98,SSE,167,2.0,4.0,71,0.00,,,0.00,673,HR-IXP-WINDi_r2_v1.2,2013-05-14 16:57:00,
2013-05-14 10:02:00,72.6,60.5,29.98,SSE,149,2.0,5.0,66,0.00,,,0.00,714,HR-IXP-WINDi_r2_v1.2,2013-05-14 17:02:00,
2013-05-14 10:08:00,71.7,59.7,29.98,West,263,2.0,6.0,66,0.00,,,0.00,668,HR-IXP-WINDi_r2_v1.2,2013-05-14 17:08:00,
2013-05-14 10:13:00,71.1,61.2,29.98,SW,214,5.0,6.0,71,0.00,,,0.00,708,HR-IXP-WINDi_r2_v1.2,2013-05-14 17:13:00,
2013-05-14 10:18:00,71.8,60.2,29.98,South,178,2.0,7.0,67,0.00,,,0.00,752,HR-IXP-WINDi_r2_v1.2,2013-05-14 17:18:00,
2013-05-14 10:24:00,71.5,60.3,29.98,SW,219,2.0,7.0,68,0.00,,,0.00,759,HR-IXP-WINDi_r2_v1.2,2013-05-14 17:24:00,
2013-05-14 10:29:00,72.1,60.9,29.98,SSE,151,2.0,7.0,68,0.00,,,0.00,770,HR-IXP-WINDi_r2_v1.2,2013-05-14 17:29:00,
2013-05-14 10:34:00,72.7,59.3,29.98,SW,216,1.0,7.0,63,0.00,,,0.00,780,HR-IXP-WINDi_r2_v1.2,2013-05-14 17:34:00,
2013-05-14 10:39:00,71.8,60.2,29.98,South,173,3.0,8.0,67,0.00,,,0.00,793,HR-IXP-WINDi_r2_v1.2,2013-05-14 17:39:00,
2013-05-14 10:44:00,72.1,60.5,29.98,South,171,3.0,8.0,67,0.00,,,0.00,805,HR-IXP-WINDi_r2_v1.2,2013-05-14 17:44:00,
2013-05-14 10:49:00,72.6,61.0,29.98,SW,225,2.0,6.0,67,0.00,,,0.00,816,HR-IXP-WINDi_r2_v1.2,2013-05-14 17:49:00,
2013-05-14 10:55:00,74.5,61.5,29.98,SW,217,2.0,6.0,64,0.00,,,0.00,821,HR-IXP-WINDi_r2_v1.2,2013-05-14 17:55:00,
2013-05-14 11:00:00,73.3,60.3,29.98,SW,220,4.0,8.0,64,0.00,,,0.00,833,HR-IXP-WINDi_r2_v1.2,2013-05-14 18:00:00,
2013-05-14 11:05:00,73.1,60.1,29.99,South,185,2.0,8.0,64,0.00,,,0.00,842,HR-IXP-WINDi_r2_v1.2,2013-05-14 18:05:00,
2013-05-14 11:10:00,72.8,59.4,29.98,SSW,202,4.0,9.0,63,0.00,,,0.00,849,HR-IXP-WINDi_r2_v1.2,2013-05-14 18:10:00,
2013-05-14 11:15:00,73.3,59.4,29.98,SSW,207,5.0,9.0,62,0.00,,,0.00,847,HR-IXP-WINDi_r2_v1.2,2013-05-14 18:15:00,
2013-05-14 11:21:00,73.0,60.0,29.98,SSW,199,2.0,8.0,64,0.00,,,0.00,786,HR-IXP-WINDi_r2_v1.2,2013-05-14 18:21:00,
2013-05-14 11:26:00,72.8,59.4,29.98,SW,234,3.0,9.0,63,0.00,,,0.00,842,HR-IXP-WINDi_r2_v1.2,2013-05-14 18:26:00,
2013-05-14 11:31:00,72.8,59.4,29.98,SW,219,6.0,9.0,63,0.00,,,0.00,896,HR-IXP-WINDi_r2_v1.2,2013-05-14 18:31:00,
2013-05-14 11:36:00,73.3,59.9,29.98,SW,221,3.0,9.0,63,0.00,,,0.00,874,HR-IXP-WINDi_r2_v1.2,2013-05-14 18:36:00,
2013-05-14 11:42:00,73.2,59.8,29.98,SW,227,3.0,9.0,63,0.00,,,0.00,872,HR-IXP-WINDi_r2_v1.2,2013-05-14 18:42:00,
2013-05-14 11:47:00,73.8,60.8,29.98,SW,220,4.0,9.0,64,0.00,,,0.00,835,HR-IXP-WINDi_r2_v1.2,2013-05-14 18:47:00,
2013-05-14 11:52:00,73.8,60.4,29.98,SW,232,4.0,8.0,63,0.00,,,0.00,784,HR-IXP-WINDi_r2_v1.2,2013-05-14 18:52:00,
2013-05-14 11:57:00,73.9,60.9,29.98,SW,217,5.0,7.0,64,0.00,,,0.00,916,HR-IXP-WINDi_r2_v1.2,2013-05-14 18:57:00,
2013-05-14 12:03:00,74.5,61.0,29.98,SSW,207,7.0,10.0,63,0.00,,,0.00,914,HR-IXP-WINDi_r2_v1.2,2013-05-14 19:03:00,
2013-05-14 12:08:00,74.4,60.5,29.98,WSW,253,4.0,10.0,62,0.00,,,0.00,919,HR-IXP-WINDi_r2_v1.2,2013-05-14 19:08:00,
2013-05-14 12:13:00,74.0,60.1,29.97,WSW,244,4.0,10.0,62,0.00,,,0.00,921,HR-IXP-WINDi_r2_v1.2,2013-05-14 19:13:00,
2013-05-14 12:18:00,74.1,60.6,29.97,SSW,194,2.0,8.0,63,0.00,,,0.00,926,HR-IXP-WINDi_r2_v1.2,2013-05-14 19:18:00,
2013-05-14 12:23:00,74.9,60.5,29.97,South,180,3.0,8.0,61,0.00,,,0.00,925,HR-IXP-WINDi_r2_v1.2,2013-05-14 19:23:00,
2013-05-14 12:28:00,74.7,60.3,29.97,South,183,5.0,8.0,61,0.00,,,0.00,928,HR-IXP-WINDi_r2_v1.2,2013-05-14 19:28:00,
2013-05-14 12:33:00,74.6,59.7,29.97,WSW,240,2.0,10.0,60,0.00,,,0.00,933,HR-IXP-WINDi_r2_v1.2,2013-05-14 19:33:00,
2013-05-14 12:38:00,76.0,61.1,29.97,SSW,194,7.0,10.0,60,0.00,,,0.00,933,HR-IXP-WINDi_r2_v1.2,2013-05-14 19:38:00,
2013-05-14 12:44:00,75.0,60.6,29.97,SSE,167,1.0,8.0,61,0.00,,,0.00,933,HR-IXP-WINDi_r2_v1.2,2013-05-14 19:44:00,
2013-05-14 12:49:00,75.7,61.2,29.97,South,171,6.0,8.0,61,0.00,,,0.00,932,HR-IXP-WINDi_r2_v1.2,2013-05-14 19:49:00,
2013-05-14 12:54:00,75.3,59.9,29.96,South,190,6.0,8.0,59,0.00,,,0.00,933,HR-IXP-WINDi_r2_v1.2,2013-05-14 19:54:00,
2013-05-14 12:59:00,75.8,60.4,29.96,SW,236,3.0,9.0,59,0.00,,,0.00,933,HR-IXP-WINDi_r2_v1.2,2013-05-14 19:59:00,
2013-05-14 13:04:00,76.0,61.1,29.96,South,189,4.0,10.0,60,0.00,,,0.00,937,HR-IXP-WINDi_r2_v1.2,2013-05-14 20:04:00,
2013-05-14 13:10:00,75.2,60.3,29.96,SSW,202,4.0,10.0,60,0.00,,,0.00,933,HR-IXP-WINDi_r2_v1.2,2013-05-14 20:10:00,
2013-05-14 13:15:00,74.9,60.5,29.96,SSW,212,7.0,11.0,61,0.00,,,0.00,930,HR-IXP-WINDi_r2_v1.2,2013-05-14 20:15:00,
2013-05-14 13:20:00,74.7,59.8,29.96,SSW,213,5.0,11.0,60,0.00,,,0.00,928,HR-IXP-WINDi_r2_v1.2,2013-05-14 20:20:00,
2013-05-14 13:25:00,74.9,60.9,29.96,SSW,202,5.0,10.0,62,0.00,,,0.00,928,HR-IXP-WINDi_r2_v1.2,2013-05-14 20:25:00,
2013-05-14 13:30:00,74.3,59.9,29.95,WSW,254,6.0,11.0,61,0.00,,,0.00,925,HR-IXP-WINDi_r2_v1.2,2013-05-14 20:30:00,
2013-05-14 13:35:00,74.0,60.1,29.95,WSW,251,5.0,11.0,62,0.00,,,0.00,918,HR-IXP-WINDi_r2_v1.2,2013-05-14 20:35:00,
2013-05-14 13:41:00,74.1,60.2,29.95,South,179,6.0,9.0,62,0.00,,,0.00,916,HR-IXP-WINDi_r2_v1.2,2013-05-14 20:41:00,
2013-05-14 13:46:00,74.9,60.5,29.95,SSE,159,3.0,9.0,61,0.00,,,0.00,904,HR-IXP-WINDi_r2_v1.2,2013-05-14 20:46:00,
2013-05-14 13:51:00,75.0,60.6,29.95,South,170,2.0,9.0,61,0.00,,,0.00,905,HR-IXP-WINDi_r2_v1.2,2013-05-14 20:51:00,
2013-05-14 13:56:00,75.5,60.6,29.95,SW,215,6.0,9.0,60,0.00,,,0.00,900,HR-IXP-WINDi_r2_v1.2,2013-05-14 20:56:00,
2013-05-14 14:01:00,75.2,59.8,29.95,SW,221,7.0,10.0,59,0.00,,,0.00,891,HR-IXP-WINDi_r2_v1.2,2013-05-14 21:01:00,
2013-05-14 14:06:00,75.4,60.5,29.95,SW,225,2.0,10.0,60,0.00,,,0.00,879,HR-IXP-WINDi_r2_v1.2,2013-05-14 21:06:00,
2013-05-14 14:12:00,76.2,60.8,29.95,SSW,209,8.0,10.0,59,0.00,,,0.00,872,HR-IXP-WINDi_r2_v1.2,2013-05-14 21:12:00,
2013-05-14 14:17:00,75.4,60.0,29.95,SSW,194,4.0,12.0,59,0.00,,,0.00,861,HR-IXP-WINDi_r2_v1.2,2013-05-14 21:17:00,
2013-05-14 14:22:00,75.9,60.0,29.95,WSW,237,4.0,12.0,58,0.00,,,0.00,858,HR-IXP-WINDi_r2_v1.2,2013-05-14 21:22:00,
2013-05-14 14:27:00,75.4,58.6,29.95,WSW,249,2.0,10.0,56,0.00,,,0.00,847,HR-IXP-WINDi_r2_v1.2,2013-05-14 21:27:00,
2013-05-14 14:32:00,76.3,58.4,29.94,SW,232,7.0,10.0,54,0.00,,,0.00,838,HR-IXP-WINDi_r2_v1.2,2013-05-14 21:32:00,
2013-05-14 14:37:00,76.5,58.6,29.94,South,184,3.0,9.0,54,0.00,,,0.00,830,HR-IXP-WINDi_r2_v1.2,2013-05-14 21:37:00,
2013-05-14 14:43:00,77.3,59.8,29.94,WSW,241,3.0,8.0,55,0.00,,,0.00,821,HR-IXP-WINDi_r2_v1.2,2013-05-14 21:43:00,
2013-05-14 14:48:00,78.0,58.9,29.94,SSW,209,4.0,9.0,52,0.00,,,0.00,812,HR-IXP-WINDi_r2_v1.2,2013-05-14 21:48:00,
2013-05-14 14:53:00,77.8,58.2,29.94,SSW,211,7.0,10.0,51,0.00,,,0.00,805,HR-IXP-WINDi_r2_v1.2,2013-05-14 21:53:00,
2013-05-14 14:58:00,78.7,59.5,29.93,SSW,200,3.0,10.0,52,0.00,,,0.00,796,HR-IXP-WINDi_r2_v1.2,2013-05-14 21:58:00,
2013-05-14 15:03:00,79.4,59.7,29.93,SW,236,8.0,9.0,51,0.00,,,0.00,784,HR-IXP-WINDi_r2_v1.2,2013-05-14 22:03:00,
2013-05-14 15:08:00,79.4,59.1,29.93,SSW,205,4.0,8.0,50,0.00,,,0.00,775,HR-IXP-WINDi_r2_v1.2,2013-05-14 22:08:00,
2013-05-14 15:13:00,79.6,58.7,29.93,SW,222,5.0,10.0,49,0.00,,,0.00,759,HR-IXP-WINDi_r2_v1.2,2013-05-14 22:13:00,
2013-05-14 15:19:00,79.6,59.8,29.93,South,172,5.0,10.0,51,0.00,,,0.00,758,HR-IXP-WINDi_r2_v1.2,2013-05-14 22:19:00,
2013-05-14 15:24:00,78.9,59.2,29.93,WSW,244,2.0,10.0,51,0.00,,,0.00,729,HR-IXP-WINDi_r2_v1.2,2013-05-14 22:24:00,
2013-05-14 15:29:00,79.3,57.9,29.93,West,271,3.0,9.0,48,0.00,,,0.00,680,HR-IXP-WINDi_r2_v1.2,2013-05-14 22:29:00,
2013-05-14 15:34:00,79.6,57.0,29.93,WSW,252,3.0,9.0,46,0.00,,,0.00,605,HR-IXP-WINDi_r2_v1.2,2013-05-14 22:34:00,
2013-05-14 15:40:00,79.2,56.0,29.92,WSW,244,9.0,13.0,45,0.00,,,0.00,554,HR-IXP-WINDi_r2_v1.2,2013-05-14 22:40:00,
2013-05-14 15:45:00,79.4,57.4,29.92,WNW,283,5.0,13.0,47,0.00,,,0.00,545,HR-IXP-WINDi_r2_v1.2,2013-05-14 22:45:00,
2013-05-14 15:50:00,79.6,55.1,29.92,WSW,258,6.0,9.0,43,0.00,,,0.00,577,HR-IXP-WINDi_r2_v1.2,2013-05-14 22:50:00,
2013-05-14 15:55:00,79.7,56.4,29.92,SW,215,6.0,8.0,45,0.00,,,0.00,615,HR-IXP-WINDi_r2_v1.2,2013-05-14 22:55:00,
2013-05-14 16:01:00,80.6,59.1,29.92,SSW,205,4.0,9.0,48,0.00,,,0.00,638,HR-IXP-WINDi_r2_v1.2,2013-05-14 23:01:00,
2013-05-14 16:06:00,78.8,58.5,29.92,SW,229,6.0,10.0,50,0.00,,,0.00,638,HR-IXP-WINDi_r2_v1.2,2013-05-14 23:06:00,
2013-05-14 16:11:00,76.7,58.2,29.92,SSW,198,12.0,16.0,53,0.00,,,0.00,619,HR-IXP-WINDi_r2_v1.2,2013-05-14 23:11:00,
2013-05-14 16:16:00,76.3,59.4,29.92,SSW,200,6.0,16.0,56,0.00,,,0.00,605,HR-IXP-WINDi_r2_v1.2,2013-05-14 23:16:00,
2013-05-14 16:22:00,75.6,58.2,29.92,WSW,244,5.0,12.0,55,0.00,,,0.00,591,HR-IXP-WINDi_r2_v1.2,2013-05-14 23:22:00,
2013-05-14 16:27:00,75.4,58.6,29.92,SW,217,6.0,12.0,56,0.00,,,0.00,575,HR-IXP-WINDi_r2_v1.2,2013-05-14 23:27:00,
2013-05-14 16:32:00,75.0,58.7,29.92,South,175,6.0,11.0,57,0.00,,,0.00,561,HR-IXP-WINDi_r2_v1.2,2013-05-14 23:32:00,
2013-05-14 16:37:00,75.3,59.5,29.92,SW,221,5.0,11.0,58,0.00,,,0.00,545,HR-IXP-WINDi_r2_v1.2,2013-05-14 23:37:00,
2013-05-14 16:42:00,76.2,59.8,29.92,SSW,202,2.0,10.0,57,0.00,,,0.00,527,HR-IXP-WINDi_r2_v1.2,2013-05-14 23:42:00,
2013-05-14 16:47:00,76.3,59.9,29.92,South,180,5.0,10.0,57,0.00,,,0.00,510,HR-IXP-WINDi_r2_v1.2,2013-05-14 23:47:00,
2013-05-14 16:53:00,76.2,59.8,29.92,WSW,255,2.0,9.0,57,0.00,,,0.00,497,HR-IXP-WINDi_r2_v1.2,2013-05-14 23:53:00,
2013-05-14 16:58:00,77.6,56.9,29.92,West,259,5.0,8.0,49,0.00,,,0.00,483,HR-IXP-WINDi_r2_v1.2,2013-05-14 23:58:00,
2013-05-14 17:03:00,77.3,54.3,29.92,West,281,8.0,11.0,45,0.00,,,0.00,469,HR-IXP-WINDi_r2_v1.2,2013-05-15 00:03:00,
2013-05-14 17:08:00,77.2,53.6,29.92,WSW,245,6.0,11.0,44,0.00,,,0.00,450,HR-IXP-WINDi_r2_v1.2,2013-05-15 00:08:00,
2013-05-14 17:13:00,77.6,52.7,29.92,West,278,5.0,9.0,42,0.00,,,0.00,438,HR-IXP-WINDi_r2_v1.2,2013-05-15 00:13:00,
2013-05-14 17:18:00,77.3,51.7,29.92,West,259,5.0,11.0,41,0.00,,,0.00,327,HR-IXP-WINDi_r2_v1.2,2013-05-15 00:18:00,
2013-05-14 17:24:00,77.0,52.1,29.92,WSW,254,3.0,11.0,42,0.00,,,0.00,403,HR-IXP-WINDi_r2_v1.2,2013-05-15 00:24:00,
2013-05-14 17:29:00,76.6,51.8,29.92,WSW,242,5.0,12.0,42,0.00,,,0.00,387,HR-IXP-WINDi_r2_v1.2,2013-05-15 00:29:00,
2013-05-14 17:34:00,76.9,52.7,29.92,WSW,257,3.0,12.0,43,0.00,,,0.00,369,HR-IXP-WINDi_r2_v1.2,2013-05-15 00:34:00,
2013-05-14 17:40:00,76.3,52.7,29.92,WNW,286,7.0,10.0,44,0.00,,,0.00,352,HR-IXP-WINDi_r2_v1.2,2013-05-15 00:40:00,
2013-05-14 17:45:00,76.6,51.8,29.92,West,277,4.0,10.0,42,0.00,,,0.00,338,HR-IXP-WINDi_r2_v1.2,2013-05-15 00:45:00,
2013-05-14 17:50:00,76.7,51.2,29.93,NW,324,2.0,7.0,41,0.00,,,0.00,320,HR-IXP-WINDi_r2_v1.2,2013-05-15 00:50:00,
2013-05-14 17:55:00,76.4,51.6,29.93,WNW,286,5.0,7.0,42,0.00,,,0.00,302,HR-IXP-WINDi_r2_v1.2,2013-05-15 00:55:00,
2013-05-14 18:00:00,76.0,53.1,29.93,WNW,299,0.0,9.0,45,0.00,,,0.00,283,HR-IXP-WINDi_r2_v1.2,2013-05-15 01:00:00,
2013-05-14 18:06:00,76.0,51.8,29.93,WNW,296,3.0,9.0,43,0.00,,,0.00,265,HR-IXP-WINDi_r2_v1.2,2013-05-15 01:06:00,
2013-05-14 18:11:00,75.4,51.3,29.93,NNW,330,3.0,6.0,43,0.00,,,0.00,165,HR-IXP-WINDi_r2_v1.2,2013-05-15 01:11:00,
2013-05-14 18:16:00,75.1,51.7,29.93,NW,313,5.0,6.0,44,0.00,,,0.00,230,HR-IXP-WINDi_r2_v1.2,2013-05-15 01:16:00,
2013-05-14 18:21:00,74.8,52.0,29.93,WNW,295,3.0,6.0,45,0.00,,,0.00,214,HR-IXP-WINDi_r2_v1.2,2013-05-15 01:21:00,
2013-05-14 18:26:00,75.2,53.5,29.93,WSW,242,3.0,6.0,47,0.00,,,0.00,197,HR-IXP-WINDi_r2_v1.2,2013-05-15 01:26:00,
2013-05-14 18:31:00,73.3,56.6,29.93,WSW,241,4.0,8.0,56,0.00,,,0.00,179,HR-IXP-WINDi_r2_v1.2,2013-05-15 01:31:00,
2013-05-14 18:36:00,71.5,55.9,29.93,WSW,252,2.0,11.0,58,0.00,,,0.00,160,HR-IXP-WINDi_r2_v1.2,2013-05-15 01:36:00,
2013-05-14 18:41:00,70.6,56.4,29.94,SW,226,6.0,11.0,61,0.00,,,0.00,142,HR-IXP-WINDi_r2_v1.2,2013-05-15 01:41:00,
2013-05-14 18:46:00,69.9,56.2,29.94,South,175,3.0,9.0,62,0.00,,,0.00,128,HR-IXP-WINDi_r2_v1.2,2013-05-15 01:46:00,
2013-05-14 18:52:00,69.2,56.0,29.94,West,263,4.0,9.0,63,0.00,,,0.00,109,HR-IXP-WINDi_r2_v1.2,2013-05-15 01:52:00,
2013-05-14 18:57:00,68.4,56.1,29.94,SSW,198,6.0,10.0,65,0.00,,,0.00,90,HR-IXP-WINDi_r2_v1.2,2013-05-15 01:57:00,
2013-05-14 19:02:00,67.9,56.1,29.94,SW,221,3.0,10.0,66,0.00,,,0.00,77,HR-IXP-WINDi_r2_v1.2,2013-05-15 02:02:00,
2013-05-14 19:07:00,67.5,56.1,29.94,WSW,250,4.0,8.0,67,0.00,,,0.00,62,HR-IXP-WINDi_r2_v1.2,2013-05-15 02:07:00,
2013-05-14 19:13:00,67.2,56.6,29.94,SW,220,8.0,8.0,69,0.00,,,0.00,49,HR-IXP-WINDi_r2_v1.2,2013-05-15 02:13:00,
2013-05-14 19:18:00,66.8,56.6,29.94,SW,220,5.0,11.0,70,0.00,,,0.00,37,HR-IXP-WINDi_r2_v1.2,2013-05-15 02:18:00,
2013-05-14 19:23:00,66.3,56.6,29.94,SW,228,2.0,11.0,71,0.00,,,0.00,26,HR-IXP-WINDi_r2_v1.2,2013-05-15 02:23:00,
2013-05-14 19:28:00,66.1,56.8,29.95,South,190,3.0,10.0,72,0.00,,,0.00,19,HR-IXP-WINDi_r2_v1.2,2013-05-15 02:28:00,
2013-05-14 19:33:00,65.9,56.9,29.95,SW,221,5.0,8.0,73,0.00,,,0.00,14,HR-IXP-WINDi_r2_v1.2,2013-05-15 02:33:00,
2013-05-14 19:39:00,65.6,57.0,29.95,SSW,192,2.0,6.0,74,0.00,,,0.00,9,HR-IXP-WINDi_r2_v1.2,2013-05-15 02:39:00,
2013-05-14 19:44:00,65.4,57.2,29.96,South,190,1.0,6.0,75,0.00,,,0.00,5,HR-IXP-WINDi_r2_v1.2,2013-05-15 02:44:00,
2013-05-14 19:49:00,65.3,57.5,29.96,SSW,211,4.0,7.0,76,0.00,,,0.00,0,HR-IXP-WINDi_r2_v1.2,2013-05-15 02:49:00,
2013-05-14 19:55:00,64.9,57.5,29.96,SW,219,6.0,7.0,77,0.00,,,0.00,0,HR-IXP-WINDi_r2_v1.2,2013-05-15 02:55:00,
2013-05-14 20:00:00,64.8,57.4,29.96,SSW,192,2.0,6.0,77,0.00,,,0.00,0,HR-IXP-WINDi_r2_v1.2,2013-05-15 03:00:00,
2013-05-14 20:05:00,64.7,57.6,29.96,SSW,213,2.0,5.0,78,0.00,,,0.00,0,HR-IXP-WINDi_r2_v1.2,2013-05-15 03:05:00,
2013-05-14 20:10:00,64.7,57.6,29.96,SSW,199,1.0,5.0,78,0.00,,,0.00,0,HR-IXP-WINDi_r2_v1.2,2013-05-15 03:10:00,
2013-05-14 20:16:00,64.7,57.6,29.96,SSW,199,1.0,3.0,78,0.00,,,0.00,0,HR-IXP-WINDi_r2_v1.2,2013-05-15 03:16:00,
2013-05-14 20:21:00,64.6,57.2,29.96,SSW,198,1.0,3.0,77,0.00,,,0.00,0,HR-IXP-WINDi_r2_v1.2,2013-05-15 03:21:00,
2013-05-14 20:26:00,64.7,57.6,29.96,South,173,1.0,3.0,78,0.00,,,0.00,0,HR-IXP-WINDi_r2_v1.2,2013-05-15 03:26:00,
2013-05-14 20:31:00,64.5,57.8,29.97,SSW,193,3.0,5.0,79,0.00,,,0.00,0,HR-IXP-WINDi_r2_v1.2,2013-05-15 03:31:00,
2013-05-14 20:36:00,64.2,57.5,29.97,SSW,192,1.0,5.0,79,0.00,,,0.00,0,HR-IXP-WINDi_r2_v1.2,2013-05-15 03:36:00,
2013-05-14 20:42:00,64.0,58.0,29.97,SSW,213,0.0,6.0,81,0.00,,,0.00,0,HR-IXP-WINDi_r2_v1.2,2013-05-15 03:42:00,
2013-05-14 20:47:00,63.8,57.8,29.97,SW,217,3.0,6.0,81,0.00,,,0.00,0,HR-IXP-WINDi_r2_v1.2,2013-05-15 03:47:00,
2013-05-14 20:52:00,63.7,58.0,29.97,SW,217,1.0,5.0,82,0.00,,,0.00,0,HR-IXP-WINDi_r2_v1.2,2013-05-15 03:52:00,
2013-05-14 20:57:00,63.6,58.3,29.97,SW,215,2.0,5.0,83,0.00,,,0.00,0,HR-IXP-WINDi_r2_v1.2,2013-05-15 03:57:00,
2013-05-14 21:01:00,63.5,58.2,29.97,SSW,202,1.0,3.0,83,0.00,,,0.00,0,HR-IXP-WINDi_r2_v1.2,2013-05-15 04:01:00,
2013-05-14 21:06:00,63.3,58.0,29.97,South,191,1.0,4.0,83,0.00,,,0.00,0,HR-IXP-WINDi_r2_v1.2,2013-05-15 04:06:00,
2013-05-14 21:11:00,63.2,58.2,29.97,SSW,210,2.0,5.0,84,0.00,,,0.00,0,HR-IXP-WINDi_r2_v1.2,2013-05-15 04:11:00,
2013-05-14 21:16:00,63.0,58.0,29.98,South,175,3.0,6.0,84,0.00,,,0.00,0,HR-IXP-WINDi_r2_v1.2,2013-05-15 04:16:00,
2013-05-14 21:22:00,62.7,57.7,29.98,South,170,3.0,6.0,84,0.00,,,0.00,0,HR-IXP-WINDi_r2_v1.2,2013-05-15 04:22:00,
2013-05-14 21:27:00,62.6,57.6,29.98,South,190,1.0,6.0,84,0.00,,,0.00,0,HR-IXP-WINDi_r2_v1.2,2013-05-15 04:27:00,
2013-05-14 21:32:00,62.5,57.9,29.99,SSW,213,2.0,5.0,85,0.00,,,0.00,0,HR-IXP-WINDi_r2_v1.2,2013-05-15 04:32:00,
2013-05-14 21:37:00,62.4,57.8,29.99,SSW,206,1.0,4.0,85,0.00,,,0.00,0,HR-IXP-WINDi_r2_v1.2,2013-05-15 04:37:00,
2013-05-14 21:42:00,62.3,57.7,29.99,SW,228,1.0,5.0,85,0.00,,,0.00,0,HR-IXP-WINDi_r2_v1.2,2013-05-15 04:42:00,
2013-05-14 21:47:00,62.1,57.5,29.99,SSW,205,1.0,5.0,85,0.00,,,0.00,0,HR-IXP-WINDi_r2_v1.2,2013-05-15 04:47:00,
2013-05-14 21:52:00,62.1,57.8,29.99,SSW,205,1.0,4.0,86,0.00,,,0.00,0,HR-IXP-WINDi_r2_v1.2,2013-05-15 04:52:00,
2013-05-14 21:58:00,62.0,57.7,30.00,SSW,205,2.0,3.0,86,0.00,,,0.00,0,HR-IXP-WINDi_r2_v1.2,2013-05-15 04:58:00,
2013-05-14 22:03:00,61.8,57.5,29.99,SSW,203,2.0,3.0,86,0.00,,,0.00,0,HR-IXP-WINDi_r2_v1.2,2013-05-15 05:03:00,
2013-05-14 22:08:00,61.7,57.4,30.00,SSW,200,1.0,4.0,86,0.00,,,0.00,0,HR-IXP-WINDi_r2_v1.2,2013-05-15 05:08:00,
2013-05-14 22:13:00,61.6,57.3,30.00,South,189,1.0,4.0,86,0.00,,,0.00,0,HR-IXP-WINDi_r2_v1.2,2013-05-15 05:13:00,
2013-05-14 22:19:00,61.5,57.2,30.00,South,189,1.0,3.0,86,0.00,,,0.00,0,HR-IXP-WINDi_r2_v1.2,2013-05-15 05:19:00,
2013-05-14 22:24:00,61.4,57.1,30.00,South,189,1.0,3.0,86,0.00,,,0.00,0,HR-IXP-WINDi_r2_v1.2,2013-05-15 05:24:00,
2013-05-14 22:29:00,61.4,57.1,30.00,South,189,0.0,3.0,86,0.00,,,0.00,0,HR-IXP-WINDi_r2_v1.2,2013-05-15 05:29:00,
2013-05-14 22:34:00,61.3,57.0,30.00,South,189,0.0,3.0,86,0.00,,,0.00,0,HR-IXP-WINDi_r2_v1.2,2013-05-15 05:34:00,
2013-05-14 22:39:00,61.3,56.7,30.00,South,188,1.0,2.0,85,0.00,,,0.00,0,HR-IXP-WINDi_r2_v1.2,2013-05-15 05:39:00,
2013-05-14 22:44:00,61.3,56.7,30.00,South,180,0.0,3.0,85,0.00,,,0.00,0,HR-IXP-WINDi_r2_v1.2,2013-05-15 05:44:00,
2013-05-14 22:49:00,61.3,56.7,30.00,South,180,0.0,3.0,85,0.00,,,0.00,0,HR-IXP-WINDi_r2_v1.2,2013-05-15 05:49:00,
2013-05-14 22:54:00,61.2,56.6,30.00,South,180,0.0,2.0,85,0.00,,,0.00,0,HR-IXP-WINDi_r2_v1.2,2013-05-15 05:54:00,
2013-05-14 22:59:00,61.0,56.4,30.00,South,178,2.0,2.0,85,0.00,,,0.00,0,HR-IXP-WINDi_r2_v1.2,2013-05-15 05:59:00,
2013-05-14 23:04:00,61.0,56.7,30.00,South,175,0.0,3.0,86,0.00,,,0.00,0,HR-IXP-WINDi_r2_v1.2,2013-05-15 06:04:00,
2013-05-14 23:10:00,60.9,56.6,30.00,South,174,0.0,3.0,86,0.00,,,0.00,0,HR-IXP-WINDi_r2_v1.2,2013-05-15 06:10:00,
2013-05-14 23:15:00,60.8,56.5,30.01,South,173,2.0,3.0,86,0.00,,,0.00,0,HR-IXP-WINDi_r2_v1.2,2013-05-15 06:15:00,
2013-05-14 23:20:00,60.8,56.5,30.00,South,171,0.0,3.0,86,0.00,,,0.00,0,HR-IXP-WINDi_r2_v1.2,2013-05-15 06:20:00,
2013-05-14 23:25:00,60.6,56.6,30.01,South,171,1.0,3.0,87,0.00,,,0.00,0,HR-IXP-WINDi_r2_v1.2,2013-05-15 06:25:00,
2013-05-14 23:30:00,60.6,56.6,30.01,South,171,0.0,2.0,87,0.00,,,0.00,0,HR-IXP-WINDi_r2_v1.2,2013-05-15 06:30:00,
2013-05-14 23:36:00,60.6,56.6,30.01,SSE,167,2.0,2.0,87,0.00,,,0.00,0,HR-IXP-WINDi_r2_v1.2,2013-05-15 06:36:00,
2013-05-14 23:41:00,60.6,56.6,30.01,SSE,166,1.0,3.0,87,0.00,,,0.00,0,HR-IXP-WINDi_r2_v1.2,2013-05-15 06:41:00,
2013-05-14 23:46:00,60.5,56.9,30.01,South,172,0.0,3.0,88,0.00,,,0.00,0,HR-IXP-WINDi_r2_v1.2,2013-05-15 06:46:00,
2013-05-14 23:51:00,60.6,57.0,30.01,South,175,0.0,3.0,88,0.00,,,0.00,0,HR-IXP-WINDi_r2_v1.2,2013-05-15 06:51:00,
2013-05-14 23:56:00,60.6,57.0,30.01,South,170,0.0,3.0,88,0.00,,,0.00,0,HR-IXP-WINDi_r2_v1.2,2013-05-15 06:56:00,